Location: Chandrammap?lem
(16.9200°N, 81.0051°E)
Time: 12:58:00
(UTC+00:00)

Cosmos 858 Rocket - Pass Details

Date: 29 May 2024
Orbit: 754 x 772 km, 74.1° (Epoch: 16 June)

Event Time Altitude Azimuth Distance (km) Brightness Sun altitude
Exits shadow 22:50:30 17° 200° (SSW) 1,859 6.1 -16.1°
Maximum altitude 22:54:33 74° 283° (WNW) 803 4.4 -15.3°
Drops below altitude 10° 22:59:47 10° 9° (N) 2,307 7.5 -14.2°
Sets 23:02:10 0° 11° (N) 3,233 8.3 -13.7°
